Location: Bonny Doon Airfield
(37.0704°N, 122.1252°W)
Time: 20:17:13
(UTC-08:00)

Vanguard 1 Rocket - Pass Details

Date: 30 October 2017
Orbit: 655 x 4222 km, 34.3° (Epoch: 17 November)

Event Time Altitude Azimuth Distance (km) Brightness Sun altitude
Rises 08:46:19 0° 274° (W) 5,309 10.8 13.0°
Reaches altitude 10° 08:50:35 10° 272° (W) 3,761 10.1 13.7°
Maximum altitude 08:59:02 62° 194° (SSW) 1,090 8.2 15.1°
Drops below altitude 10° 09:04:02 10° 113° (ESE) 2,269 11.8 16.0°
Sets 09:06:03 0° 110° (ESE) 3,065 11.7 16.3°
